GW2669 Weather Reports


Display with metric or nautical units.
time (UTC)temp
F
wind
direction
speed
MPH
gust
MPH
rain 1hr
in
rain 24hr
in
rain mn
in
humidity
%
barometer
mb
20260505180057 83 301 10.0 18.0 0.00 0.00 0.00 23 1010.8
20260505174548 83 288 12.0 22.0 0.00 0.00 0.00 22 1010.8
20260505173052 82 307 14.0 19.0 0.00 0.00 0.00 23 1011.0
20260505171548 81 287 17.0 23.0 0.00 0.00 0.00 23 1011.0
20260505170049 80 304 11.0 18.0 0.00 0.00 0.00 25 1011.1
20260505164550 80 310 8.0 17.0 0.00 0.00 0.00 24 1011.2
20260505163048 79 320 12.0 16.0 0.00 0.00 0.00 24 1011.4
20260505161551 79 265 11.0 18.0 0.00 0.00 0.00 24 1011.6
20260505153055 78 287 11.0 15.0 0.00 0.00 0.00 24 1011.6
20260505151551 77 290 8.0 15.0 0.00 0.00 0.00 25 1011.4
20260505140113 73 302 4.0 9.0 0.00 0.00 0.00 29 1010.8
20260505124559 64 0 0.0 0.0 0.00 0.00 0.00 40 1009.3
20260505123056 64 0 0.0 1.0 0.00 0.00 0.00 43 1009.4
20260505121602 66 0 0.0 3.0 0.00 0.00 0.00 38 1008.9
20260505120105 69 251 1.0 3.0 0.00 0.00 0.00 32 1008.7
20260505114556 70 283 2.0 6.0 0.00 0.00 0.00 31 1008.6
20260505113101 70 277 5.0 8.0 0.00 0.00 0.00 30 1008.6
20260505111551 69 284 4.0 8.0 0.00 0.00 0.00 32 1008.5
20260505101555 70 301 4.0 9.0 0.00 0.00 0.00 32 1008.2
20260505100052 71 288 6.0 8.0 0.00 0.00 0.00 31 1008.3
20260505094558 70 275 4.0 7.0 0.00 0.00 0.00 33 1008.3
20260505093054 67 0 0.0 0.0 0.00 0.00 0.00 39 1008.2
20260505091547 65 0 0.0 0.0 0.00 0.00 0.00 42 1008.2
20260505090057 64 0 0.0 0.0 0.00 0.00 0.00 48 1008.2
20260505084555 67 0 0.0 2.0 0.00 0.00 0.00 40 1008.3
20260505083104 67 256 1.0 4.0 0.00 0.00 0.00 39 1008.5
20260505081558 68 249 3.0 7.0 0.00 0.00 0.00 39 1008.6
20260505080055 69 240 3.0 5.0 0.00 0.00 0.00 38 1008.6
20260505074559 69 248 3.0 5.0 0.00 0.00 0.00 38 1008.5
20260505073058 69 253 2.0 7.0 0.00 0.00 0.00 39 1008.7
20260505071551 68 255 2.0 4.0 0.00 0.00 0.00 42 1008.7
20260505070104 69 252 3.0 6.0 0.00 0.00 0.00 42 1008.9
20260505064558 70 267 3.0 8.0 0.00 0.00 0.00 39 1008.8
20260505063053 71 259 4.0 7.0 0.00 0.00 0.00 37 1008.8
20260505061614 72 257 3.0 8.0 0.00 0.00 0.00 35 1009.0
20260505060100 73 263 3.0 7.0 0.00 0.00 0.00 33 1009.1
20260505054556 73 245 3.0 5.0 0.00 0.00 0.00 33 1009.1
20260505053054 74 253 2.0 4.0 0.00 0.00 0.00 32 1009.1
20260505051552 73 250 2.0 3.0 0.00 0.00 0.00 33 1009.2
20260505041556 76 244 1.0 3.0 0.00 0.00 0.00 31 1009.1
20260505034549 76 241 0.0 2.0 0.00 0.00 0.00 28 1008.8
20260505033101 76 221 0.0 2.0 0.00 0.00 0.00 27 1008.6
20260505031552 77 0 0.0 1.0 0.00 0.00 0.00 26 1008.5
20260505030054 79 0 0.0 0.0 0.00 0.00 0.00 24 1008.6
20260505024553 80 0 0.0 2.0 0.00 0.00 0.00 22 1008.5
20260505023054 81 253 1.0 3.0 0.00 0.00 0.00 20 1008.7
20260505021549 81 269 2.0 4.0 0.00 0.00 0.00 19 1008.6
20260505020053 82 273 3.0 7.0 0.00 0.00 0.00 18 1008.5
20260505014548 83 282 3.0 8.0 0.00 0.00 0.00 17 1008.3
20260505013051 84 290 7.0 11.0 0.00 0.00 0.00 16 1007.9
20260505011557 86 285 8.0 14.0 0.00 0.00 0.00 15 1008.0
20260505004550 87 306 12.0 20.0 0.00 0.00 0.00 14 1008.0
20260505003053 88 279 16.0 21.0 0.00 0.00 0.00 14 1008.0
20260505001554 89 294 14.0 20.0 0.00 0.00 0.00 14 1008.1
20260504234611 89 288 15.0 22.0 0.00 0.00 0.00 14 1008.2
20260504233050 90 284 14.0 22.0 0.00 0.00 0.00 13 1008.2
20260504231550 91 293 15.0 22.0 0.00 0.00 0.00 13 1008.3
20260504230055 90 326 14.0 23.0 0.00 0.00 0.00 14 1008.3
20260504224550 91 311 13.0 20.0 0.00 0.00 0.00 14 1008.7
20260504223050 90 305 10.0 24.0 0.00 0.00 0.00 14 1008.8
20260504221550 90 303 14.0 18.0 0.00 0.00 0.00 14 1008.8
20260504214551 90 289 14.0 31.0 0.00 0.00 0.00 12 1009.1
20260504213108 91 284 11.0 24.0 0.00 0.00 0.00 12 1009.1
20260504211551 91 290 17.0 23.0 0.00 0.00 0.00 13 1009.1
20260504210101 92 292 14.0 24.0 0.00 0.00 0.00 13 1009.5
20260504204555 91 294 14.0 23.0 0.00 0.00 0.00 14 1009.8
20260504203051 91 281 13.0 28.0 0.00 0.00 0.00 14 1010.1
20260504201556 89 297 15.0 25.0 0.00 0.00 0.00 14 1010.3
20260504200048 89 304 13.0 25.0 0.00 0.00 0.00 16 1010.6
20260504194556 89 288 9.0 19.0 0.00 0.00 0.00 19 1010.7
20260504193059 90 286 15.0 23.0 0.00 0.00 0.00 20 1010.8
20260504191550 89 298 8.0 20.0 0.00 0.00 0.00 22 1010.9
20260504190056 87 250 12.0 20.0 0.00 0.00 0.00 24 1011.4
20260504184555 87 277 8.0 16.0 0.00 0.00 0.00 22 1011.4
20260504183059 87 292 12.0 19.0 0.00 0.00 0.00 22 1011.6
20260504181550 86 304 10.0 18.0 0.00 0.00 0.00 23 1011.6